N172SP KIAD-KDCA

Flight info

Callsign N172SP
Flight time 0h 25m
Altitude 5500
Route IAD DCA
Aircraft C172/L-VGDW/C

Departure

Time 2026-05-05 21:47
Airport Washington Dulles International Airport (KIAD)

Arrival

Time 2026-05-05 22:12
Airport Ronald Reagan Washington National Airport (KDCA)
Time Latitude Longitude Altitude Speed Heading
2026-05-05 21:31 38.96911 -77.45426 273 ft 0 kts 91°
2026-05-05 21:42 38.96911 -77.45424 273 ft 2 kts 97°
2026-05-05 21:43 38.96907 -77.45420 273 ft 0 kts 220°
2026-05-05 21:43 38.96893 -77.45448 273 ft 4 kts 253°
2026-05-05 21:43 38.96886 -77.45467 273 ft 0 kts 230°
2026-05-05 21:44 38.96872 -77.45519 273 ft 5 kts 272°
2026-05-05 21:44 38.96878 -77.45570 272 ft 5 kts 323°
2026-05-05 21:44 38.96923 -77.45638 271 ft 12 kts 276°
2026-05-05 21:44 38.96928 -77.45771 268 ft 16 kts 275°
2026-05-05 21:45 38.96928 -77.45816 268 ft 0 kts 272°
2026-05-05 21:46 38.96926 -77.45857 268 ft 14 kts 267°
2026-05-05 21:46 38.96850 -77.45936 268 ft 14 kts 182°
2026-05-05 21:46 38.96577 -77.45943 269 ft 61 kts 182°
2026-05-05 21:46 38.96138 -77.45940 449 ft 63 kts 187°
2026-05-05 21:47 38.95714 -77.45897 645 ft 60 kts 187°
2026-05-05 21:47 38.95284 -77.45983 777 ft 65 kts 203°
2026-05-05 21:47 38.94831 -77.45996 947 ft 67 kts 182°
2026-05-05 21:47 38.94389 -77.45983 1134 ft 59 kts 203°
2026-05-05 21:48 38.94157 -77.46371 1300 ft 61 kts 250°
2026-05-05 21:48 38.94253 -77.46935 1492 ft 66 kts 272°
2026-05-05 21:48 38.94450 -77.47473 1663 ft 67 kts 276°
2026-05-05 21:48 38.94661 -77.47983 1843 ft 63 kts 276°
2026-05-05 21:49 38.94859 -77.48475 2009 ft 60 kts 277°
2026-05-05 21:49 38.95054 -77.48919 2186 ft 55 kts 276°
2026-05-05 21:49 38.95246 -77.49339 2306 ft 61 kts 285°
2026-05-05 21:49 38.95528 -77.49745 2470 ft 55 kts 279°
2026-05-05 21:50 38.95733 -77.50204 2538 ft 66 kts 275°
2026-05-05 21:50 38.95967 -77.50787 2607 ft 76 kts 278°
2026-05-05 21:50 38.96377 -77.51329 2709 ft 98 kts 320°
2026-05-05 21:50 38.97107 -77.51471 2830 ft 110 kts 350°
2026-05-05 21:51 38.97868 -77.51433 2847 ft 114 kts 353°
2026-05-05 21:51 38.98700 -77.51401 2753 ft 122 kts 353°
2026-05-05 21:51 38.99567 -77.51379 2654 ft 128 kts 352°
2026-05-05 21:51 39.00469 -77.51357 2561 ft 129 kts 352°
2026-05-05 21:52 39.02199 -77.51298 2529 ft 119 kts 352°
2026-05-05 21:52 39.03014 -77.51231 2528 ft 119 kts
2026-05-05 21:52 39.03754 -77.50729 2528 ft 120 kts 31°
2026-05-05 21:53 39.04449 -77.50120 2534 ft 119 kts 33°
2026-05-05 21:53 39.05134 -77.49528 2533 ft 119 kts 31°
2026-05-05 21:53 39.05820 -77.48927 2533 ft 119 kts 34°
2026-05-05 21:53 39.06504 -77.48331 2537 ft 119 kts 32°
2026-05-05 21:54 39.07209 -77.47772 2531 ft 118 kts 14°
2026-05-05 21:54 39.08002 -77.47637 2530 ft 112 kts 354°
2026-05-05 21:54 39.08779 -77.47596 2526 ft 112 kts 353°
2026-05-05 21:54 39.09557 -77.47559 2523 ft 111 kts 352°
2026-05-05 21:55 39.10335 -77.47509 2531 ft 111 kts 351°
2026-05-05 21:55 39.11116 -77.47472 2533 ft 111 kts 352°
2026-05-05 21:55 39.11893 -77.47441 2532 ft 112 kts 352°
2026-05-05 21:55 39.12680 -77.47300 2531 ft 118 kts 17°
2026-05-05 21:56 39.13295 -77.46616 2530 ft 118 kts 63°
2026-05-05 21:56 39.13477 -77.45641 2531 ft 105 kts 109°
2026-05-05 21:56 39.13184 -77.44865 2470 ft 94 kts 150°
2026-05-05 21:56 39.12661 -77.44328 2353 ft 100 kts 154°
2026-05-05 21:57 39.12129 -77.43735 2242 ft 104 kts 150°
2026-05-05 21:57 39.11596 -77.43065 2120 ft 107 kts 146°
2026-05-05 21:57 39.11087 -77.42365 2038 ft 105 kts 147°
2026-05-05 21:57 39.10616 -77.41679 2027 ft 98 kts 146°
2026-05-05 21:58 39.10167 -77.41025 2025 ft 95 kts 146°
2026-05-05 21:58 39.09739 -77.40395 2029 ft 93 kts 145°
2026-05-05 21:58 39.09314 -77.39768 2045 ft 92 kts 145°
2026-05-05 21:58 39.08889 -77.39137 2041 ft 92 kts 145°
2026-05-05 21:59 39.08467 -77.38508 2042 ft 92 kts 147°
2026-05-05 21:59 39.08048 -77.37882 2041 ft 92 kts 145°
2026-05-05 21:59 39.07628 -77.37257 2047 ft 93 kts 146°
2026-05-05 21:59 39.07199 -77.36620 2043 ft 94 kts 146°
2026-05-05 22:00 39.06769 -77.35974 2047 ft 94 kts 146°
2026-05-05 22:00 39.06342 -77.35335 2030 ft 94 kts 147°
2026-05-05 22:00 39.05919 -77.34701 2027 ft 92 kts 144°
2026-05-05 22:00 39.05498 -77.34073 2022 ft 91 kts 144°
2026-05-05 22:01 39.05093 -77.33463 2033 ft 90 kts 146°
2026-05-05 22:01 39.04682 -77.32848 2024 ft 90 kts 146°
2026-05-05 22:01 39.04269 -77.32236 2027 ft 90 kts 144°
2026-05-05 22:01 39.03857 -77.31617 2025 ft 90 kts 144°
2026-05-05 22:02 39.03451 -77.31012 2021 ft 89 kts 146°
2026-05-05 22:02 39.03050 -77.30409 2019 ft 89 kts 146°
2026-05-05 22:02 39.02642 -77.29807 2025 ft 88 kts 145°
2026-05-05 22:02 39.02245 -77.29213 2027 ft 88 kts 146°
2026-05-05 22:03 39.01839 -77.28604 2032 ft 89 kts 147°
2026-05-05 22:03 39.01429 -77.27992 2036 ft 90 kts 146°
2026-05-05 22:03 39.01015 -77.27380 2036 ft 91 kts 146°
2026-05-05 22:03 39.00598 -77.26755 2038 ft 91 kts 144°
2026-05-05 22:04 39.00182 -77.26135 2041 ft 92 kts 146°
2026-05-05 22:04 38.99762 -77.25507 2029 ft 92 kts 146°
2026-05-05 22:04 38.99344 -77.24884 2032 ft 92 kts 144°
2026-05-05 22:04 38.98926 -77.24258 2044 ft 92 kts 145°
2026-05-05 22:05 38.98500 -77.23630 2050 ft 94 kts 145°
2026-05-05 22:05 38.98071 -77.22989 2036 ft 94 kts 145°
2026-05-05 22:05 38.97641 -77.22347 2054 ft 94 kts 144°
2026-05-05 22:05 38.97210 -77.21703 2034 ft 95 kts 144°
2026-05-05 22:06 38.96778 -77.21056 2028 ft 94 kts 145°
2026-05-05 22:06 38.96354 -77.20425 2035 ft 93 kts 146°
2026-05-05 22:06 38.95935 -77.19801 2045 ft 93 kts 144°
2026-05-05 22:06 38.95510 -77.19170 2034 ft 94 kts 145°
2026-05-05 22:07 38.95084 -77.18539 2034 ft 93 kts 145°
2026-05-05 22:07 38.94658 -77.17902 2043 ft 93 kts 146°
2026-05-05 22:07 38.94236 -77.17274 2042 ft 93 kts 146°
2026-05-05 22:07 38.93809 -77.16640 2038 ft 93 kts 146°
2026-05-05 22:08 38.93389 -77.16016 2042 ft 92 kts 147°
2026-05-05 22:08 38.92965 -77.15384 2039 ft 92 kts 146°
2026-05-05 22:08 38.92546 -77.14764 2045 ft 92 kts 146°
2026-05-05 22:08 38.92121 -77.14133 2044 ft 92 kts 146°
2026-05-05 22:09 38.91700 -77.13508 2043 ft 93 kts 146°
2026-05-05 22:09 38.91322 -77.12800 2044 ft 99 kts 130°
2026-05-05 22:09 38.91021 -77.11996 2045 ft 100 kts 130°
2026-05-05 22:09 38.90732 -77.11181 2037 ft 100 kts 129°
2026-05-05 22:10 38.90438 -77.10371 2036 ft 99 kts 129°
2026-05-05 22:10 38.90141 -77.09550 1985 ft 103 kts 129°
2026-05-05 22:10 38.89824 -77.08698 1862 ft 107 kts 128°
2026-05-05 22:10 38.89497 -77.07829 1678 ft 112 kts 128°
2026-05-05 22:11 38.89119 -77.06957 1454 ft 108 kts 143°
2026-05-05 22:11 38.88553 -77.06377 1264 ft 98 kts 156°
2026-05-05 22:11 38.87993 -77.05859 910 ft 103 kts 161°
2026-05-05 22:11 38.87366 -77.05441 546 ft 105 kts 159°
2026-05-05 22:12 38.86826 -77.04954 348 ft 84 kts 154°
2026-05-05 22:12 38.86397 -77.04569 166 ft 66 kts 156°
2026-05-05 22:12 38.86072 -77.04269 45 ft 47 kts 158°
2026-05-05 22:12 38.85866 -77.04112 19 ft 22 kts 139°
2026-05-05 22:13 38.85782 -77.04061 19 ft 7 kts 171°
2026-05-05 22:13 38.85764 -77.04055 19 ft 0 kts 172°
2026-05-05 22:14 38.85745 -77.04052 19 ft 4 kts 175°
2026-05-05 22:14 38.85725 -77.04050 19 ft 5 kts 177°
2026-05-05 22:14 38.85621 -77.04040 21 ft 22 kts 174°
2026-05-05 22:14 38.85439 -77.04005 22 ft 27 kts 175°
2026-05-05 22:15 38.85252 -77.03988 22 ft 27 kts 176°
2026-05-05 22:15 38.85059 -77.03966 21 ft 28 kts 176°
2026-05-05 22:15 38.84864 -77.03945 21 ft 28 kts 175°
2026-05-05 22:15 38.84687 -77.04006 19 ft 23 kts 205°
2026-05-05 22:16 38.84592 -77.04107 20 ft 14 kts 256°
2026-05-05 22:16 38.84571 -77.04233 20 ft 15 kts 257°
2026-05-05 22:16 38.84607 -77.04372 21 ft 15 kts 322°
2026-05-05 22:16 38.84636 -77.04418 23 ft 14 kts 309°
2026-05-05 22:17 38.84607 -77.04520 23 ft 10 kts 231°
2026-05-05 22:17 38.84568 -77.04585 21 ft 7 kts 233°
2026-05-05 22:17 38.84537 -77.04649 20 ft 7 kts 280°
2026-05-05 22:17 38.84573 -77.04677 22 ft 4 kts 319°
2026-05-05 22:18 38.84539 -77.04668 20 ft 8 kts 161°
2026-05-05 22:18 38.84506 -77.04686 19 ft 4 kts 238°
2026-05-05 22:18 38.84511 -77.04732 20 ft 10 kts 324°
2026-05-05 22:18 38.84549 -77.04735 21 ft 0 kts 157°
2026-05-05 22:19 38.84548 -77.04735 21 ft 0 kts 161°